Chronos: Grand Prix des États-Unis 2017

Ils méprisent les légendes, ne se déterminent que face aux faits et au jugement de la piste, leurs arguments font l'économie du sentiment et leur grammaire se nomme triangulation. Ils n'aspirent pas à convaincre, intimement certains de ne pas défendre une opinion mais d'énoncer la Vérité. Ce lieu est leur sanctuaire, le dernier conservatoire de leurs Prophéties.

Modérateurs: sheon, Nicklaus

Chronos: Grand Prix des États-Unis 2017

Messagede Hugues le 20 Oct 2017, 18:54

La hiérarchie et les meilleurs partiels de chacun des pilotes à l'issue de la 1ère séance d'essais libres :
Code: Tout sélectionner
01 44 L.HAMILTON       1:36.335          25.7  38.5  32.0  1:51.253 18
02  5 S.VETTEL         1:36.928    0.59  26.0  38.6  32.3  1:56.324 20
03 77 V.BOTTAS         1:36.979    0.64  26.0  38.7  32.3  2:42.874 10
04 33 M.VERSTAPPEN     1:37.339    1.00  25.9  38.9  32.5  1:48.532 21
05  2 S.VANDOORNE      1:37.352    1.02  26.0  39.2  32.1  2:07.104 26
06 19 F.MASSA          1:37.570    1.24  26.2  38.9  32.5  1:45.697 23
07  7 K.RAIKKONEN      1:37.598    1.26  26.0  38.7  32.5  1:42.674 20
08 31 E.OCON           1:37.808    1.47  26.3  39.0  32.6  1:48.736 25
09 11 S.PEREZ          1:37.861    1.53  26.1  39.0  32.8  2:06.060 20
10 55 C.SAINZ          1:38.093    1.76  26.4  39.4  32.2  1:59.128 24
11 20 K.MAGNUSSEN      1:38.408    2.07  26.4  39.4  32.6  2:00.245 16
12 18 L.STROLL         1:38.534    2.20  26.3  39.4  32.7  1:57.054 25
13 27 N.HULKENBERG     1:38.904    2.57  26.5  39.2  32.9  1:55.593 19
14 39 B.HARTLEY        1:39.267    2.93  26.7  39.4  32.9  1:47.637 28
15  8 R.GROSJEAN       1:39.336    3.00  26.6  39.6  33.1  1:48.569 17
16  3 D.RICCIARDO      1:39.366    3.03  26.4  39.4  33.6  2:07.871 14
17 38 S.GELAEL         1:40.406    4.07  26.7  39.8  33.7  3:40.626 25
18  9 M.ERICSSON       1:40.448    4.11  26.8  40.0  33.4  2:00.018 19
19 37 C.LECLERC        1:40.828    4.49  27.0  39.8  33.5  2:00.380 25
20 14 F.ALONSO                           28.9  46.2  45.1 57:32.516  4


À retenir:
- séance courue sur piste humide, s'asséchant. Les pilotes ont successivement chaussés les intermédiaires puis les super tendres et les ultra tendres (sans ordre particulier entre ces deux derniers)
- Fernando Alonso immobilisé par une fuite hydraulique touchant le chassis.


Hugues
世の中は何にたとへん水鳥の嘴はし振る露にやとる月影
Avatar de l'utilisateur
Hugues
Michel Desjoyeaux virtuel
 
Messages: 23946
Inscription: 26 Fév 2003, 06:14

Re: Chronos: Grand Prix des États-Unis 2017

Messagede Hugues le 20 Oct 2017, 18:58

La chronologie chronométrique des améliorations de chacune des pilotes lors de la 1ère séance d'essais libres:
Code: Tout sélectionner
[10:05:56] V. BOTTAS      1:50.529 (1)
[10:08:09] L. HAMILTON    1:50.146 (1)
[10:08:32] M. VERSTAPPEN  1:50.314 (2)
[10:09:24] D. RICCIARDO   1:50.730 (4)
[10:10:02] L. HAMILTON    1:50.146 (1)
[10:10:02] M. VERSTAPPEN  1:50.314 (2)
[10:10:02] V. BOTTAS      1:50.529 (3)
[10:10:02] D. RICCIARDO   1:50.730 (4)
[10:18:09] S. GELAEL      2:16.088 (5)
[10:19:51] D. RICCIARDO   1:50.494 (3)
[10:20:07] S. GELAEL      1:58.486 (5)
[10:21:24] E. OCON        2:05.713 (6)
[10:22:04] S. GELAEL      1:54.703 (5)
[10:23:24] F. MASSA       1:52.105 (5)
[10:23:33] L. STROLL      1:52.407 (6)
[10:23:44] S. VANDOORNE   1:50.169 (2)
[10:23:56] S. GELAEL      1:53.992 (8)
[10:24:16] S. PEREZ       1:50.848 (6)
[10:24:47] M. VERSTAPPEN  1:47.922 (1)
[10:25:22] E. OCON        1:51.050 (7)
[10:25:33] C. SAINZ       1:52.071 (8)
[10:27:39] S. VANDOORNE   1:49.748 (2)
[10:27:57] C. LECLERC     1:54.757 (12)
[10:28:04] S. GELAEL      1:53.511 (11)
[10:28:17] S. VETTEL      1:48.272 (2)
[10:28:29] K. RAIKKONEN   1:51.117 (9)
[10:29:26] L. STROLL      1:51.086 (9)
[10:29:40] C. SAINZ       1:50.487 (5)
[10:31:41] F. MASSA       1:48.171 (2)
[10:32:26] B. HARTLEY     1:53.230 (13)
[10:32:35] N. HULKENBERG  1:49.970 (5)
[10:33:48] C. SAINZ       1:48.927 (4)
[10:33:59] K. MAGNUSSEN   1:52.059 (14)
[10:34:07] S. VANDOORNE   1:48.520 (4)
[10:35:44] F. MASSA       1:47.692 (1)
[10:35:51] L. STROLL      1:49.554 (6)
[10:36:34] R. GROSJEAN    1:50.823 (11)
[10:37:44] S. VETTEL      1:45.960 (1)
[10:37:53] C. LECLERC     1:54.446 (18)
[10:38:21] K. MAGNUSSEN   1:50.856 (13)
[10:39:06] E. OCON        1:49.145 (6)
[10:39:20] M. ERICSSON    1:54.221 (18)
[10:41:53] C. LECLERC     1:52.688 (16)
[10:43:08] E. OCON        1:48.949 (6)
[10:53:35] D. RICCIARDO   1:40.297 (1)
[10:57:14] D. RICCIARDO   1:39.366 (1)
[10:58:27] B. HARTLEY     1:42.055 (2)
[10:58:53] N. HULKENBERG  1:40.920 (2)
[10:59:36] K. RAIKKONEN   1:40.207 (2)
[11:00:32] N. HULKENBERG  1:39.837 (2)
[11:01:10] S. GELAEL      1:42.478 (5)
[11:01:23] L. STROLL      1:39.763 (2)
[11:01:41] M. VERSTAPPEN  1:38.158 (1)
[11:01:56] C. SAINZ       1:40.173 (5)
[11:02:00] B. HARTLEY     1:40.846 (7)
[11:02:09] V. BOTTAS      1:38.272 (2)
[11:02:34] L. HAMILTON    1:36.935 (1)
[11:02:52] R. GROSJEAN    1:42.384 (10)
[11:03:00] K. RAIKKONEN   1:39.494 (5)
[11:03:03] L. STROLL      1:39.507 (6)
[11:03:11] M. ERICSSON    1:43.250 (12)
[11:04:58] S. GELAEL      1:40.678 (9)
[11:05:11] M. VERSTAPPEN  1:37.339 (2)
[11:05:26] B. HARTLEY     1:39.631 (7)
[11:05:35] C. SAINZ       1:39.242 (4)
[11:05:42] V. BOTTAS      1:36.979 (2)
[11:06:13] S. PEREZ       1:39.278 (5)
[11:06:25] K. RAIKKONEN   1:37.641 (4)
[11:06:34] R. GROSJEAN    1:40.110 (11)
[11:06:45] M. ERICSSON    1:41.805 (13)
[11:06:49] L. STROLL      1:38.876 (5)
[11:06:57] S. VETTEL      1:38.587 (5)
[11:07:33] E. OCON        1:38.168 (5)
[11:07:41] N. HULKENBERG  1:38.904 (8)
[11:07:52] S. PEREZ       1:38.212 (6)
[11:07:59] L. HAMILTON    1:36.335 (1)
[11:08:27] M. ERICSSON    1:40.530 (14)
[11:08:36] S. VETTEL      1:37.946 (5)
[11:08:54] F. MASSA       1:37.570 (4)
[11:08:58] B. HARTLEY     1:39.267 (12)
[11:09:17] C. SAINZ       1:38.643 (9)
[11:09:58] K. RAIKKONEN   1:37.598 (5)
[11:10:21] L. STROLL      1:38.534 (9)
[11:11:04] E. OCON        1:37.808 (6)
[11:11:18] S. PEREZ       1:37.861 (7)
[11:11:48] M. ERICSSON    1:40.448 (15)
[11:12:04] S. VETTEL      1:36.928 (2)
[11:12:21] S. GELAEL      1:40.406 (15)
[11:12:44] C. LECLERC     1:44.412 (17)
[11:16:13] C. LECLERC     1:41.898 (17)
[11:17:42] S. VANDOORNE   1:42.826 (18)
[11:17:54] C. LECLERC     1:41.198 (17)
[11:19:08] K. MAGNUSSEN   1:40.105 (14)
[11:19:20] S. VANDOORNE   1:37.846 (8)
[11:21:27] R. GROSJEAN    1:39.944 (15)
[11:22:34] K. MAGNUSSEN   1:38.916 (13)
[11:22:50] S. VANDOORNE   1:37.651 (7)
[11:26:16] C. LECLERC     1:41.115 (19)
[11:27:02] R. GROSJEAN    1:39.336 (15)
[11:29:06] S. VANDOORNE   1:37.352 (5)
[11:30:04] C. SAINZ       1:38.093 (10)
[11:30:13] C. LECLERC     1:40.828 (19)
[11:32:08] K. MAGNUSSEN   1:38.408 (11)


PS: Il y a évidemment probablement un décalage pour l'horodatage du temps de Magnussen.

Hugues
世の中は何にたとへん水鳥の嘴はし振る露にやとる月影
Avatar de l'utilisateur
Hugues
Michel Desjoyeaux virtuel
 
Messages: 23946
Inscription: 26 Fév 2003, 06:14

Re: Chronos: Grand Prix des États-Unis 2017

Messagede Hugues le 20 Oct 2017, 22:40

La hiérarchie et les meilleurs partiels de chacun des pilotes à l'issue de la 2ème séance d'essais libres :
Code: Tout sélectionner
01 44 L.HAMILTON       1:34.668          25.3  38.0  31.4  2:00.406 26
02 33 M.VERSTAPPEN     1:35.065    0.40  25.5  38.0  31.4  1:56.869 30
03  5 S.VETTEL         1:35.192    0.52  25.6  38.0  31.6  1:44.479 11
04 77 V.BOTTAS         1:35.279    0.61  25.4  38.2  31.6  1:53.921 39
05  3 D.RICCIARDO      1:35.463    0.80  25.5  38.3  31.6  1:48.104 24
06  7 K.RAIKKONEN      1:35.514    0.85  25.5  38.4  31.5  1:41.619 29
07 14 F.ALONSO         1:36.304    1.64  25.9  38.7  31.7  1:46.501 28
08 19 F.MASSA          1:36.460    1.79  25.9  38.5  32.0  1:56.801 30
09 11 S.PEREZ          1:36.481    1.81  25.9  38.5  31.9  2:06.757 28
10 31 E.OCON           1:36.490    1.82  25.8  38.6  32.1  1:49.342 34
11 55 C.SAINZ          1:36.529    1.86  25.9  38.6  32.1  1:59.159 30
12 27 N.HULKENBERG     1:36.534    1.87  25.8  38.8  32.0  1:49.773 18
13 26 D.KVYAT          1:36.761    2.09  25.9  38.6  32.3  2:29.513 40
14 20 K.MAGNUSSEN      1:37.285    2.62  25.8  38.7  32.4  2:00.317 17
15  2 S.VANDOORNE      1:37.463    2.79  26.1  39.0  32.0  1:48.551 31
16 18 L.STROLL         1:37.788    3.12  26.0  39.1  32.7  2:11.090 27
17 39 B.HARTLEY        1:37.987    3.32  26.3  39.1  32.5  1:46.023 41
18 94 P.WEHRLEIN       1:38.165    3.50  26.4  39.1  32.6  1:56.630 35
19  9 M.ERICSSON       1:38.262    3.59  26.3  39.4  32.5  1:53.599 22
20  8 R.GROSJEAN       1:38.387    3.72  26.2  39.4  32.7  1:50.107 26


À retenir:
- C'était sur le sec
- Des incompréhensions répétées et des mots aigres-doux entre les deux pilotes Haas.
- Quelques excursions hors piste, notamment de Vettel.


Hugues
世の中は何にたとへん水鳥の嘴はし振る露にやとる月影
Avatar de l'utilisateur
Hugues
Michel Desjoyeaux virtuel
 
Messages: 23946
Inscription: 26 Fév 2003, 06:14

Re: Chronos: Grand Prix des États-Unis 2017

Messagede Hugues le 20 Oct 2017, 22:42

La chronologie chronométrique des améliorations de chacun des pilotes lors de la 3ème séance d'essais libres:
Code: Tout sélectionner
[14:03:29] D. KVYAT       1:39.733 (1)
[14:04:07] F. ALONSO      1:39.023 (1)
[14:04:26] K. MAGNUSSEN   1:44.062 (3)
[14:04:30] R. GROSJEAN    1:56.431 (4)
[14:04:47] B. HARTLEY     1:40.259 (3)
[14:06:12] R. GROSJEAN    1:41.725 (4)
[14:06:20] C. SAINZ       1:42.228 (5)
[14:06:26] K. RAIKKONEN   1:40.003 (3)
[14:06:51] D. KVYAT       1:39.599 (2)
[14:07:01] P. WEHRLEIN    1:42.975 (7)
[14:07:18] V. BOTTAS      1:49.765 (9)
[14:07:21] E. OCON        1:37.509 (1)
[14:07:28] N. HULKENBERG  1:38.246 (2)
[14:07:39] F. ALONSO      1:38.058 (2)
[14:08:13] M. ERICSSON    1:56.438 (12)
[14:08:41] P. WEHRLEIN    1:41.681 (7)
[14:08:55] V. BOTTAS      1:36.976 (1)
[14:09:02] S. VANDOORNE   1:37.535 (3)
[14:09:47] R. GROSJEAN    1:39.073 (6)
[14:09:54] M. ERICSSON    1:39.962 (8)
[14:09:57] K. RAIKKONEN   1:36.667 (1)
[14:10:04] B. HARTLEY     1:39.463 (8)
[14:10:07] L. HAMILTON    1:36.991 (3)
[14:10:14] C. SAINZ       1:38.535 (8)
[14:10:20] F. MASSA       1:38.945 (9)
[14:10:25] S. PEREZ       1:37.034 (4)
[14:10:31] D. KVYAT       1:38.919 (10)
[14:11:20] D. RICCIARDO   1:36.426 (1)
[14:12:30] L. STROLL      1:38.534 (10)
[14:12:35] M. VERSTAPPEN  1:36.328 (1)
[14:13:21] R. GROSJEAN    1:38.387 (11)
[14:13:35] M. ERICSSON    1:39.490 (17)
[14:13:39] B. HARTLEY     1:39.188 (16)
[14:13:44] F. ALONSO      1:37.776 (9)
[14:13:50] L. HAMILTON    1:36.534 (3)
[14:13:59] C. SAINZ       1:38.143 (10)
[14:14:04] P. WEHRLEIN    1:40.344 (18)
[14:15:08] D. RICCIARDO   1:36.116 (1)
[14:15:59] F. MASSA       1:38.343 (12)
[14:16:10] D. KVYAT       1:38.119 (10)
[14:17:21] F. ALONSO      1:37.666 (9)
[14:17:36] P. WEHRLEIN    1:40.333 (18)
[14:18:10] V. BOTTAS      1:36.817 (5)
[14:19:41] F. MASSA       1:38.340 (13)
[14:21:09] P. WEHRLEIN    1:39.779 (18)
[14:24:34] M. ERICSSON    1:39.203 (17)
[14:24:40] P. WEHRLEIN    1:39.465 (18)
[14:32:44] V. BOTTAS      1:35.596 (1)
[14:32:53] B. HARTLEY     1:38.301 (13)
[14:35:04] L. HAMILTON    1:34.668 (1)
[14:35:30] D. KVYAT       1:36.761 (6)
[14:36:19] V. BOTTAS      1:35.279 (2)
[14:36:26] B. HARTLEY     1:38.145 (12)
[14:37:28] E. OCON        1:36.490 (5)
[14:38:42] F. MASSA       1:36.460 (5)
[14:38:57] F. ALONSO      1:36.304 (4)
[14:39:44] S. VANDOORNE   1:37.463 (11)
[14:40:08] K. RAIKKONEN   1:35.514 (3)
[14:41:20] P. WEHRLEIN    1:38.873 (17)
[14:42:39] M. VERSTAPPEN  1:35.065 (2)
[14:43:14] K. MAGNUSSEN   1:37.285 (11)
[14:43:29] B. HARTLEY     1:37.987 (13)
[14:45:04] M. ERICSSON    1:38.262 (16)
[14:45:26] S. PEREZ       1:36.481 (8)
[14:45:51] S. VETTEL      1:35.192 (3)
[14:45:58] D. RICCIARDO   1:35.463 (5)
[14:46:51] P. WEHRLEIN    1:38.282 (18)
[14:49:36] L. STROLL      1:37.788 (14)
[14:52:31] P. WEHRLEIN    1:38.165 (17)
[14:57:32] C. SAINZ       1:36.529 (11)
[15:10:17] N. HULKENBERG  1:36.534 (12)


Hugues
世の中は何にたとへん水鳥の嘴はし振る露にやとる月影
Avatar de l'utilisateur
Hugues
Michel Desjoyeaux virtuel
 
Messages: 23946
Inscription: 26 Fév 2003, 06:14

Re: Chronos: Grand Prix des États-Unis 2017

Messagede Hugues le 21 Oct 2017, 19:30

La hiérarchie et les meilleurs partiels de chacun des pilotes à l'issue de la 3ème séance d'essais libres :
Code: Tout sélectionner
01 44 L.HAMILTON       1:34.478          25.3  38.1  30.9  2:28.271 15
02  5 S.VETTEL         1:34.570    0.09  25.2  38.2  31.2  1:43.549 19
03 77 V.BOTTAS         1:34.692    0.21  25.3  38.3  31.1  1:45.215 17
04  7 K.RAIKKONEN      1:34.755    0.28  25.5  38.2  31.1  1:41.248 17
05 33 M.VERSTAPPEN     1:35.103    0.62  25.4  38.4  31.1  1:47.562 14
06 19 F.MASSA          1:35.346    0.87  25.6  38.4  31.4  1:44.979 11
07 27 N.HULKENBERG     1:35.608    1.13  25.8  38.4  31.4  1:44.086 21
08 55 C.SAINZ          1:35.650    1.17  25.7  38.6  31.4  2:34.058 16
09  3 D.RICCIARDO      1:35.723    1.25  25.7  38.6  31.4  2:01.798 17
10 11 S.PEREZ          1:35.802    1.32  25.7  38.7  31.3  1:54.540 16
11 31 E.OCON           1:35.965    1.49  25.6  38.8  31.5  1:57.450 17
12 18 L.STROLL         1:36.118    1.64  25.8  38.7  31.5  2:01.630 12
13 14 F.ALONSO         1:36.239    1.76  25.9  38.9  31.4  1:44.635 15
14  2 S.VANDOORNE      1:36.599    2.12  25.8  39.0  31.6  1:51.513 14
15 39 B.HARTLEY        1:36.818    2.34  26.1  39.0  31.8  1:47.089 26
16 20 K.MAGNUSSEN      1:37.271    2.79  25.9  39.1  32.0  1:58.847 16
17  9 M.ERICSSON       1:37.319    2.84  26.2  39.2  31.9  1:48.662 17
18 94 P.WEHRLEIN       1:37.807    3.33  26.3  39.2  32.2  1:53.718 15
19  8 R.GROSJEAN       1:37.891    3.41  26.1  39.3  32.3  1:38.282  9
20 26 D.KVYAT          1:38.500    4.02  26.4  39.4  32.4  2:24.269  6



À retenir:
- sortie successives de Max Verstappen et Romain Grosjean dans la même courbe à quelques secondes d'intervalle mais le survirage du français et le tête à queue l'immobilisent dans les graviers et interrompent longuement sa séance au contraire du néerlandais.

Version longue:


Hugues
世の中は何にたとへん水鳥の嘴はし振る露にやとる月影
Avatar de l'utilisateur
Hugues
Michel Desjoyeaux virtuel
 
Messages: 23946
Inscription: 26 Fév 2003, 06:14

Re: Chronos: Grand Prix des États-Unis 2017

Messagede Hugues le 21 Oct 2017, 20:19

La chronologie chronométrique des améliorations de chacun des pilotes lors de la 3ème séance d'essais libres:
Code: Tout sélectionner
[11:06:48] B. HARTLEY     1:41.499 (1)
[11:07:57] C. SAINZ       1:37.125 (1)
[11:08:07] N. HULKENBERG  1:37.613 (2)
[11:08:28] B. HARTLEY     1:40.803 (3)
[11:11:43] C. SAINZ       1:36.813 (1)
[11:11:50] N. HULKENBERG  1:37.061 (2)
[11:14:19] S. VETTEL      1:36.603 (1)
[11:14:27] V. BOTTAS      1:53.471 (5)
[11:14:28] D. RICCIARDO   1:36.534 (1)
[11:14:43] K. RAIKKONEN   1:35.562 (1)
[11:14:53] E. OCON        1:37.251 (6)
[11:15:14] S. PEREZ       1:37.058 (5)
[11:16:03] V. BOTTAS      1:35.637 (2)
[11:16:25] L. HAMILTON    1:35.717 (3)
[11:17:55] S. VETTEL      1:35.658 (3)
[11:18:05] D. KVYAT       1:38.792 (10)
[11:18:31] E. OCON        1:37.014 (7)
[11:18:37] D. RICCIARDO   1:36.249 (5)
[11:18:52] S. PEREZ       1:37.008 (7)
[11:19:49] V. BOTTAS      1:35.545 (1)
[11:19:56] L. HAMILTON    1:35.125 (1)
[11:20:40] K. MAGNUSSEN   1:37.968 (10)
[11:20:49] R. GROSJEAN    1:38.609 (11)
[11:21:36] S. VETTEL      1:35.543 (2)
[11:21:47] D. KVYAT       1:38.500 (11)
[11:22:05] E. OCON        1:36.764 (6)
[11:22:24] D. RICCIARDO   1:36.101 (5)
[11:22:32] S. PEREZ       1:36.988 (8)
[11:22:46] F. ALONSO      1:36.404 (6)
[11:24:18] K. MAGNUSSEN   1:37.668 (11)
[11:24:27] R. GROSJEAN    1:37.891 (12)
[11:24:43] M. ERICSSON    1:38.283 (13)
[11:24:59] P. WEHRLEIN    1:38.211 (13)
[11:26:59] S. VANDOORNE   1:37.342 (11)
[11:28:35] P. WEHRLEIN    1:38.145 (14)
[11:29:00] F. MASSA       1:36.956 (9)
[11:30:34] S. VANDOORNE   1:36.976 (10)
[11:31:33] M. VERSTAPPEN  2:04.251 (19)
[11:38:52] M. ERICSSON    1:38.010 (15)
[11:40:17] M. VERSTAPPEN  1:35.217 (2)
[11:40:34] S. VETTEL      1:34.570 (1)
[11:40:40] K. RAIKKONEN   1:34.755 (2)
[11:41:01] V. BOTTAS      1:34.692 (2)
[11:41:01] B. HARTLEY     1:37.737 (15)
[11:41:03] F. MASSA       1:36.260 (7)
[11:41:10] L. HAMILTON    1:34.478 (1)
[11:41:21] L. STROLL      1:36.421 (9)
[11:44:23] B. HARTLEY     1:37.434 (15)
[11:51:24] S. VANDOORNE   1:36.599 (10)
[11:52:43] F. ALONSO      1:36.239 (7)
[11:54:54] N. HULKENBERG  1:35.608 (6)
[11:55:30] B. HARTLEY     1:36.818 (14)
[11:55:39] C. SAINZ       1:35.650 (7)
[11:55:54] E. OCON        1:35.965 (8)
[11:56:01] L. HAMILTON    1:34.478 (1)
[11:56:01] S. VETTEL      1:34.570 (2)
[11:56:01] V. BOTTAS      1:34.692 (3)
[11:56:01] K. RAIKKONEN   1:34.755 (4)
[11:56:01] M. VERSTAPPEN  1:35.217 (5)
[11:56:01] N. HULKENBERG  1:35.608 (6)
[11:56:01] C. SAINZ       1:35.650 (7)
[11:56:01] E. OCON        1:35.965 (8)
[11:56:01] D. RICCIARDO   1:36.101 (9)
[11:56:01] F. ALONSO      1:36.239 (10)
[11:56:01] F. MASSA       1:36.260 (11)
[11:56:01] L. STROLL      1:36.421 (12)
[11:56:01] S. VANDOORNE   1:36.599 (13)
[11:56:01] B. HARTLEY     1:36.818 (14)
[11:56:01] S. PEREZ       1:36.988 (15)
[11:56:01] K. MAGNUSSEN   1:37.668 (16)
[11:56:01] R. GROSJEAN    1:37.891 (17)
[11:56:01] M. ERICSSON    1:38.010 (18)
[11:56:01] P. WEHRLEIN    1:38.145 (19)
[11:56:01] D. KVYAT       1:38.500 (20)
[11:56:17] L. STROLL      1:36.118 (10)
[11:56:24] M. VERSTAPPEN  1:35.103 (5)
[11:57:16] S. PEREZ       1:35.802 (8)
[11:57:16] M. ERICSSON    1:37.319 (16)
[11:57:19] K. MAGNUSSEN   1:37.545 (17)
[11:57:26] P. WEHRLEIN    1:37.807 (18)
[11:57:42] F. MASSA       1:35.346 (6)
[12:01:03] K. MAGNUSSEN   1:37.271 (16)
[12:01:06] D. RICCIARDO   1:35.723 (9)


Hugues
世の中は何にたとへん水鳥の嘴はし振る露にやとる月影
Avatar de l'utilisateur
Hugues
Michel Desjoyeaux virtuel
 
Messages: 23946
Inscription: 26 Fév 2003, 06:14

Re: Chronos: Grand Prix des États-Unis 2017

Messagede Hugues le 21 Oct 2017, 23:24

La hiérarchie et les meilleurs partiels de chacun des pilotes à l'issue de la 1ère période de qualification :
Code: Tout sélectionner
01 44 L.HAMILTON       1:34.822          25.5  37.9  31.4  2:05.849  5
02 33 M.VERSTAPPEN     1:34.899    0.08  25.6  38.1  31.2  1:53.790  4
03 77 V.BOTTAS         1:35.309    0.49  25.6  38.2  31.4  1:39.231  4
04  5 S.VETTEL         1:35.420    0.60  25.7  38.3  31.5  1:52.881  5
05 55 C.SAINZ          1:35.517    0.69  25.6  38.3  31.6  2:07.255  8
06 19 F.MASSA          1:35.603    0.78  25.7  38.3  31.6  1:54.944  3
07  7 K.RAIKKONEN      1:35.649    0.83  25.7  38.4  31.6  1:53.084  5
08 14 F.ALONSO         1:35.712    0.89  25.6  38.6  31.5  2:00.252  3
09 27 N.HULKENBERG     1:35.740    0.92  25.8  38.3  31.6  1:54.711  3
10 31 E.OCON           1:35.849    1.03  25.7  38.3  31.8  1:49.639  5
11  3 D.RICCIARDO      1:35.991    1.17  25.9  38.5  31.5  1:49.763  5
12 26 D.KVYAT          1:36.073    1.25  25.9  38.5  31.7  1:55.370  9
13  2 S.VANDOORNE      1:36.286    1.46  25.6  38.8  31.8  1:53.184  8
14 11 S.PEREZ          1:36.358    1.54  25.7  38.6  31.7  1:54.979  7
15  8 R.GROSJEAN       1:36.835    2.01  25.7  38.9  32.2  2:05.518  8
16  9 M.ERICSSON       1:36.842    2.02  26.0  38.9  31.9  1:53.208  9
17 18 L.STROLL         1:36.868    2.05  25.8  39.0  31.8  2:16.230  8
18 39 B.HARTLEY        1:36.889    2.07  26.1  38.8  32.0  1:52.460  7
19 94 P.WEHRLEIN       1:37.179    2.36  26.2  38.8  32.1  1:51.762  9
20 20 K.MAGNUSSEN      1:37.394    2.57  26.0  39.2  32.2  2:01.201  7


Hugues
世の中は何にたとへん水鳥の嘴はし振る露にやとる月影
Avatar de l'utilisateur
Hugues
Michel Desjoyeaux virtuel
 
Messages: 23946
Inscription: 26 Fév 2003, 06:14

Re: Chronos: Grand Prix des États-Unis 2017

Messagede Hugues le 21 Oct 2017, 23:26

La chronologie chronométrique des améliorations de chacun des pilotes, amputée des premières 9'24" lors de la 1ère période de qualification:
Code: Tout sélectionner
[Temps à 16h09:24]
[16:09:24] V. BOTTAS      1:35.309 (1)
[16:09:24] E. OCON        1:35.849 (2)
[16:09:24] D. RICCIARDO   1:35.991 (3)
[16:09:24] K. RAIKKONEN   1:36.314 (4)
[16:09:24] C. SAINZ       1:36.355 (5)
[16:09:24] S. VETTEL      1:36.365 (6)
[16:09:24] L. HAMILTON    1:36.425 (7)
[16:09:24] S. VANDOORNE   1:37.184 (8)
[16:09:24] L. STROLL      1:37.600 (9)
[16:09:24] P. WEHRLEIN    1:37.682 (10)
[16:09:24] R. GROSJEAN    1:37.724 (11)
[16:09:24] D. KVYAT       1:37.865 (12)
[16:09:24] B. HARTLEY     1:38.129 (13)
[16:09:24] M. ERICSSON    1:38.608 (14)
[16:09:24] K. MAGNUSSEN   1:39.057 (15)
[16:09:24] S. PEREZ       1:49.819 (16)
[16:09:24] M. VERSTAPPEN  1:59.656 (17)
[16:09:24] F. MASSA                ()
[16:09:24] N. HULKENBERG           ()
[16:09:24] F. ALONSO               ()

[Chronologie après 16:09:24]
[16:10:23] F. ALONSO      1:35.712 (2)
[16:10:29] M. VERSTAPPEN  1:34.899 (1)
[16:10:35] F. MASSA       1:35.603 (3)
[16:10:41] S. VANDOORNE   1:37.040 (11)
[16:10:52] N. HULKENBERG  1:35.740 (5)
[16:10:59] L. HAMILTON    1:34.822 (1)
[16:11:07] S. VETTEL      1:35.420 (4)
[16:11:15] K. RAIKKONEN   1:35.649 (6)
[16:11:18] D. KVYAT       1:36.503 (12)
[16:11:24] L. STROLL      1:37.352 (14)
[16:11:30] P. WEHRLEIN    1:37.668 (15)
[16:11:53] M. ERICSSON    1:37.871 (17)
[16:12:01] S. PEREZ       1:36.358 (12)
[16:17:57] R. GROSJEAN    1:36.835 (14)
[16:18:03] K. MAGNUSSEN   1:37.394 (17)
[16:18:14] B. HARTLEY     1:36.889 (15)
[16:18:47] P. WEHRLEIN    1:37.179 (17)
[16:18:52] D. KVYAT       1:36.073 (11)
[16:18:58] S. VANDOORNE   1:36.286 (12)
[16:19:04] M. ERICSSON    1:36.842 (16)
[16:19:19] L. STROLL      1:36.868 (17)
[16:19:23] C. SAINZ       1:35.517 (5)


Hugues
世の中は何にたとへん水鳥の嘴はし振る露にやとる月影
Avatar de l'utilisateur
Hugues
Michel Desjoyeaux virtuel
 
Messages: 23946
Inscription: 26 Fév 2003, 06:14

Re: Chronos: Grand Prix des États-Unis 2017

Messagede Hugues le 21 Oct 2017, 23:46

La hiérarchie et les meilleurs partiels de chacun des pilotes à l'issue de la 2ème période de qualification :
Code: Tout sélectionner
01 44 L.HAMILTON       1:33.437          25.0  37.6  30.7  2:07.518 11
02 77 V.BOTTAS         1:33.769    0.33  25.2  37.5  31.0  2:04.738 10
03  7 K.RAIKKONEN      1:33.840    0.40  25.1  37.8  30.9  1:57.723 11
04  5 S.VETTEL         1:34.103    0.67  25.2  37.9  31.0  1:57.556 11
05  3 D.RICCIARDO      1:34.495    1.06  25.4  38.0  31.1  2:09.377  8
06 33 M.VERSTAPPEN     1:34.716    1.28  25.4  38.2  31.1  1:59.404  7
07 11 S.PEREZ          1:34.789    1.35  25.5  38.1  31.2  2:03.184 13
08 55 C.SAINZ          1:34.899    1.46  25.4  38.2  31.3  2:00.603 14
09 14 F.ALONSO         1:35.046    1.61  25.5  38.2  31.2  2:04.620  9
10 31 E.OCON           1:35.113    1.68  25.4  38.2  31.5  2:09.302 11
11 19 F.MASSA          1:35.155    1.72  25.5  38.3  31.3  2:02.468  9
12 26 D.KVYAT          1:35.529    2.09  25.5  38.4  31.6  2:05.154 15
13  2 S.VANDOORNE      1:35.641    2.20  25.6  38.6  31.4  2:08.937 14
14  8 R.GROSJEAN       1:35.870    2.43  25.5  38.7  31.6  2:13.836 14
15 27 N.HULKENBERG                                                   3
16  9 M.ERICSSON       1:36.842    3.40  26.0  38.9  31.9  3:48.049  9
17 18 L.STROLL         1:36.868    3.43  25.8  39.0  31.8  4:24.899  8
18 39 B.HARTLEY        1:36.889    3.45  26.1  38.8  32.0  7:57.730  7
19 94 P.WEHRLEIN       1:37.179    3.74  26.2  38.8  32.1  3:50.753  9
20 20 K.MAGNUSSEN      1:37.394    3.96  26.0  39.2  32.2  6:20.086  7


Hugues
世の中は何にたとへん水鳥の嘴はし振る露にやとる月影
Avatar de l'utilisateur
Hugues
Michel Desjoyeaux virtuel
 
Messages: 23946
Inscription: 26 Fév 2003, 06:14

Re: Chronos: Grand Prix des États-Unis 2017

Messagede Hugues le 21 Oct 2017, 23:48

La chronologie chronométrique des améliorations de chacun des pilotes lors de la 2ème période de qualification:
Code: Tout sélectionner
[16:29:05] L. HAMILTON    1:33.560 (1)
[16:29:14] V. BOTTAS      1:33.793 (2)
[16:30:10] D. KVYAT       1:36.417 (3)
[16:30:48] D. RICCIARDO   1:34.495 (3)
[16:31:13] M. VERSTAPPEN  1:34.716 (4)
[16:31:18] E. OCON        1:35.216 (5)
[16:31:27] S. VETTEL      1:34.389 (3)
[16:31:37] S. PEREZ       1:35.249 (7)
[16:31:44] R. GROSJEAN    1:36.402 (8)
[16:32:04] K. RAIKKONEN   1:34.543 (5)
[16:32:12] F. ALONSO      1:35.459 (9)
[16:32:18] F. MASSA       1:35.401 (9)
[16:32:26] S. VANDOORNE   1:35.752 (11)
[16:32:37] C. SAINZ       1:35.396 (9)
[16:40:03] D. KVYAT       1:35.529 (12)
[16:40:15] R. GROSJEAN    1:35.870 (14)
[16:40:25] L. HAMILTON    1:33.437 (1)
[16:40:33] F. ALONSO      1:35.046 (7)
[16:40:37] E. OCON        1:35.113 (8)
[16:40:43] S. VANDOORNE   1:35.641 (13)
[16:40:49] V. BOTTAS      1:33.769 (2)
[16:40:56] F. MASSA       1:35.155 (9)
[16:41:02] S. VETTEL      1:34.103 (3)
[16:41:06] K. RAIKKONEN   1:33.840 (3)
[16:41:14] C. SAINZ       1:34.899 (7)
[16:41:22] S. PEREZ       1:34.789 (7)


Hugues
世の中は何にたとへん水鳥の嘴はし振る露にやとる月影
Avatar de l'utilisateur
Hugues
Michel Desjoyeaux virtuel
 
Messages: 23946
Inscription: 26 Fév 2003, 06:14

Re: Chronos: Grand Prix des États-Unis 2017

Messagede Hugues le 22 Oct 2017, 00:23

La hiérarchie et les meilleurs partiels de chacun des pilotes à l'issue de la 3ème période de qualification :
Code: Tout sélectionner
01 44 L.HAMILTON       1:33.108          24.9  37.4  30.7  2:11.879 18
02  5 S.VETTEL         1:33.347    0.24  25.0  37.7  30.6  2:06.534 18
03 77 V.BOTTAS         1:33.568    0.46  25.0  37.6  30.9  2:13.523 17
04  3 D.RICCIARDO      1:33.577    0.47  25.1  37.6  30.8  2:06.602 14
05  7 K.RAIKKONEN      1:33.577    0.47  24.9  37.7  30.8  2:03.626 17
06 33 M.VERSTAPPEN     1:33.658    0.55  24.9  37.8  30.7  2:01.022 13
07 31 E.OCON           1:34.647    1.54  25.4  37.9  31.3  2:14.519 17
08 55 C.SAINZ          1:34.852    1.74  25.4  38.1  31.4  2:04.851 17
09 14 F.ALONSO         1:35.007    1.90  25.4  38.3  31.2  2:03.655 15
10 11 S.PEREZ          1:35.148    2.04  25.3  38.1  31.5  2:09.597 19
11 19 F.MASSA          1:35.155    2.05  25.5  38.3  31.3  5:11.564  9
12 26 D.KVYAT          1:35.529    2.42  25.5  38.4  31.6  6:32.045 15
13  2 S.VANDOORNE      1:35.641    2.53  25.6  38.6  31.4  1:35.641 14
14  8 R.GROSJEAN       1:35.870    2.76  25.5  38.7  31.6  1:35.870 14
15 27 N.HULKENBERG                                                   3
16  9 M.ERICSSON       1:36.842    3.73  26.0  38.9  31.9  3:48.049  9
17 18 L.STROLL         1:36.868    3.76  25.8  39.0  31.8  4:24.899  8
18 39 B.HARTLEY        1:36.889    3.78  26.1  38.8  32.0  7:57.730  7
19 94 P.WEHRLEIN       1:37.179    4.07  26.2  38.8  32.1  3:50.753  9
20 20 K.MAGNUSSEN      1:37.394    4.29  26.0  39.2  32.2  6:20.086  7


Hugues
世の中は何にたとへん水鳥の嘴はし振る露にやとる月影
Avatar de l'utilisateur
Hugues
Michel Desjoyeaux virtuel
 
Messages: 23946
Inscription: 26 Fév 2003, 06:14

Re: Chronos: Grand Prix des États-Unis 2017

Messagede Hugues le 22 Oct 2017, 00:25

La chronologie chronométrique des améliorations de chacun des pilotes lors de la 3ème période de qualification:
Code: Tout sélectionner
[16:51:46] E. OCON        1:34.743 (1)
[16:51:56] L. HAMILTON    1:33.108 (1)
[16:52:04] V. BOTTAS      1:33.568 (2)
[16:52:18] F. ALONSO      1:35.126 (4)
[16:52:27] D. RICCIARDO   1:34.130 (3)
[16:52:37] M. VERSTAPPEN  1:33.868 (3)
[16:52:44] S. VETTEL      1:33.867 (3)
[16:53:02] S. PEREZ       1:35.167 (8)
[16:53:10] K. RAIKKONEN   1:33.852 (3)
[17:00:21] F. ALONSO      1:35.007 (8)
[17:00:26] C. SAINZ       1:34.852 (8)
[17:00:32] E. OCON        1:34.647 (7)
[17:00:40] S. VETTEL      1:33.347 (2)
[17:00:48] D. RICCIARDO   1:33.577 (4)
[17:00:58] M. VERSTAPPEN  1:33.658 (5)
[17:01:07] K. RAIKKONEN   1:33.577 (5)
[17:01:30] S. PEREZ       1:35.148 (10)


Hugues
世の中は何にたとへん水鳥の嘴はし振る露にやとる月影
Avatar de l'utilisateur
Hugues
Michel Desjoyeaux virtuel
 
Messages: 23946
Inscription: 26 Fév 2003, 06:14

Re: Chronos: Grand Prix des États-Unis 2017

Messagede Aym le 23 Oct 2017, 18:01

Championnat du Monde des Pilotes 2017
1 2 3 4 5 6 7 8 9 10 11 12 13 14 15 16 17 18 19 20
1Image Lewis Hamilton (44)331182518122562510122512252525182525
2Image Sebastian Vettel (5)2652518251818251212186251815-12-18
3Image Valtteri Bottas (77)2441581525-121818251815101815101210
4Image Daniel Ricciardo (3)192-1210-151515251510-1512181515-
5Image Kimi Räikkönen (7)16312101215-186-1015181210-1015
6Image Max Verstappen (33)1231015-10-10---1210-1-251812
7Image Sergio Pérez (11)86626812-10-624-210864
8Image Esteban Ocon (31)73111610-88442281188
9Image Carlos Sainz, Jr. (55)5446-168-4--61-12--6
10Image Felipe Massa (19)368-82-2--2144-212
11Image Nicolas Hülkenberg (27)34--248-4--8-8-----
12Image Lance Stroll (18)32------2151---644--
13Image Romain Grosjean (8)28--4-141-8--6-2-2-
14Image Kevin Magnussen (20)15-4---1-6-------4-
15Image Stoffel Vandoorne (2)13---------1--66--
16Image Fernando Alonso (14)10-----2--8------
17Image Jolyon Palmer (30)8------------8--
18Image Pascal Wehrlein (94)5--4--1---------
19Image Daniil Kvyat (26)52---2---------1
20Image Marcus Ericsson (9)0-----------------
21Image Antonio Giovinazzi (36)0--
22Image Pierre Gasly (10)0--
23Image Brendon Hartley (39)0-
NCImage Jenson Button (22)0-
NCImage Paul Di Resta (40)0-

Championnat du Monde des Ecuries 2017
1 2 3 4 5 6 7 8 9 10 11 12 13 14 15 16 17 18 19 20
1Image Mercedes5753333333725184328374327354340283735
2Image Ferrari42837283733184318122821433025-121033
3Image Red Bull3151027101015251525152210151318403312
4Image Force India1597371422-18810662101191412
5Image Williams688-82-221531-4104612
6Image Toro Rosso5366-188-4--61-12--1
7Image Renault48--248-4--8-8-8--6
8Image Haas43-44-15168--6-2-6-
9Image McLaren23-------2--9--66--
10Image Sauber5----4--1---------
L'informatique n'est pas une science exacte, on n'est jamais à l'abri d'un succès
Avatar de l'utilisateur
Aym
papaquintintien
 
Messages: 25443
Inscription: 18 Fév 2003, 19:05
Localisation: Toulouse


Retourner vers Forum statistiques

Qui est en ligne

Utilisateurs parcourant ce forum: Aucun utilisateur enregistré et 1 invité